Regional Weather Roundup
Issued by NWS Charleston, WV

Home | Current Version | Previous Version | Graphics & Text | Print | Product List | Glossary On
Versions: 1 2 3 4 5 6 7 8 9 10 11 12 13 14 15 16 17 18 19 20 21 22 23 24 25 26 27 28 29 30 31 32 33 34 35 36 37 38 39 40 41 42 43 44 45 46 47 48 49 50
000
ASUS41 KRLX 190310
RWRRLX
West Virginia Regional Weather Roundup
National Weather Service Charleston WV
1100 PM EDT THU SEP 18 2014

Note: "fair" indicates few or no clouds below 12,000 feet with no
significant weather and/or obstructions to visibility.

WVZ003-190400-
Northern Panhandle of West Virginia

CITY           SKY/WX    TMP DP  RH WIND       PRES   REMARKS
WHEELING       CLEAR     57  50  77 N10       30.15R
$$

WVZ009-190400-
Northwest West Virginia

CITY           SKY/WX    TMP DP  RH WIND       PRES   REMARKS
PARKERSBURG    CLEAR     51  48  89 CALM      30.16R
$$

WVZ006-190400-
Western West Virginia

CITY           SKY/WX    TMP DP  RH WIND       PRES   REMARKS
HUNTINGTON     CLEAR     58  50  75 NE5       30.11R
$$

WVZ015-190400-
West Central West Virginia

CITY           SKY/WX    TMP DP  RH WIND       PRES   REMARKS
CHARLESTON     CLEAR     57  57 100 CALM      30.11R
$$

WVZ031-190400-
North Central West Virginia

CITY           SKY/WX    TMP DP  RH WIND       PRES   REMARKS
CLARKSBURG     CLEAR     50  49  96 CALM      30.14R
MORGANTOWN     CLEAR     53  47  79 CALM      30.15R
$$

WVZ035-042-045-190400-
South Central West Virginia

CITY           SKY/WX    TMP DP  RH WIND       PRES   REMARKS
BECKLEY        PTCLDY    57  51  80 NE3       30.14R
BLUEFIELD      CLOUDY    61  53  75 CALM      30.15R
LEWISBURG      MOCLDY    57  53  85 CALM      30.13R
$$

WVZ047-190400-
Northern Mountains of West Virginia

CITY           SKY/WX    TMP DP  RH WIND       PRES   REMARKS
ELKINS         PTCLDY    52  52 100 CALM      30.16R
$$

WVZ052-190400-
Eastern Panhandle of West Virginia

CITY           SKY/WX    TMP DP  RH WIND       PRES   REMARKS
MARTINSBURG    CLEAR     58  48  69 CALM      30.12R
PETERSBURG     PTCLDY    54  51  90 CALM      30.15R
$$



USA.gov is the U.S. government's official web portal to all federal, state and local government web resources and services.